#Datum;Uhrzeit;WR;Pac;DaySum;Status;WR;Pac;DaySum;Status;Pdc1;Udc;Temp;WR;Pac;DaySum;Status;Pdc1;Udc;Temp;WR;Pac;DaySum;Status;Pdc1;Udc;Temp;WR;Pac;DaySum;Status;Pdc1;Pdc2;Udc1;Udc2;Temp;WR;Pac;DaySum;Status;Pdc1;Pdc2;Udc1;Udc2;Temp;WR;Pac;DaySum;Status;Pdc1;Udc;Temp;WR;Pac;DaySum;Status;Pdc1;Udc;Temp;WR;Pac;DaySum;Status;Pdc1;Udc;Temp
28.10.20;23:55:00;1;274;19502;0;2;0;7897;0;0;0;0;3;0;4637;0;0;0;0;4;0;5701;0;0;0;0;5;0;0;0;0;0;0;0;0;6;0;10666;0;0;0;0;0;0;7;0;9390;0;0;0;0;8;0;4344;0;0;0;0;9;0;4392;0;0;0;0
28.10.20;23:50:00;1;267;19477;0;2;0;7897;0;0;0;0;3;0;4637;0;0;0;0;4;0;5701;0;0;0;0;5;0;0;0;0;0;0;0;0;6;0;10666;0;0;0;0;0;0;7;0;9390;0;0;0;0;8;0;4344;0;0;0;0;9;0;4392;0;0;0;0
28.10.20;23:45:00;1;262;19455;0;2;0;7897;0;0;0;0;3;0;4637;0;0;0;0;4;0;5701;0;0;0;0;5;0;0;0;0;0;0;0;0;6;0;10666;0;0;0;0;0;0;7;0;9390;0;0;0;0;8;0;4344;0;0;0;0;9;0;4392;0;0;0;0
28.10.20;23:40:00;1;250;19433;0;2;0;7897;0;0;0;0;3;0;4637;0;0;0;0;4;0;5701;0;0;0;0;5;0;0;0;0;0;0;0;0;6;0;10666;0;0;0;0;0;0;7;0;9390;0;0;0;0;8;0;4344;0;0;0;0;9;0;4392;0;0;0;0
28.10.20;23:35:00;1;282;19412;0;2;0;7897;0;0;0;0;3;0;4637;0;0;0;0;4;0;5701;0;0;0;0;5;0;0;0;0;0;0;0;0;6;0;10666;0;0;0;0;0;0;7;0;9390;0;0;0;0;8;0;4344;0;0;0;0;9;0;4392;0;0;0;0
28.10.20;23:30:00;1;260;19389;0;2;0;7897;0;0;0;0;3;0;4637;0;0;0;0;4;0;5701;0;0;0;0;5;0;0;0;0;0;0;0;0;6;0;10666;0;0;0;0;0;0;7;0;9390;0;0;0;0;8;0;4344;0;0;0;0;9;0;4392;0;0;0;0
28.10.20;23:25:00;1;245;19365;0;2;0;7897;0;0;0;0;3;0;4637;0;0;0;0;4;0;5701;0;0;0;0;5;0;0;0;0;0;0;0;0;6;0;10666;0;0;0;0;0;0;7;0;9390;0;0;0;0;8;0;4344;0;0;0;0;9;0;4392;0;0;0;0
28.10.20;23:20:00;1;289;19345;0;2;0;7897;0;0;0;0;3;0;4637;0;0;0;0;4;0;5701;0;0;0;0;5;0;0;0;0;0;0;0;0;6;0;10666;0;0;0;0;0;0;7;0;9390;0;0;0;0;8;0;4344;0;0;0;0;9;0;4392;0;0;0;0
28.10.20;23:15:00;1;297;19321;0;2;0;7897;0;0;0;0;3;0;4637;0;0;0;0;4;0;5701;0;0;0;0;5;0;0;0;0;0;0;0;0;6;0;10666;0;0;0;0;0;0;7;0;9390;0;0;0;0;8;0;4344;0;0;0;0;9;0;4392;0;0;0;0
28.10.20;23:10:00;1;303;19296;0;2;0;7897;0;0;0;0;3;0;4637;0;0;0;0;4;0;5701;0;0;0;0;5;0;0;0;0;0;0;0;0;6;0;10666;0;0;0;0;0;0;7;0;9390;0;0;0;0;8;0;4344;0;0;0;0;9;0;4392;0;0;0;0
28.10.20;23:05:00;1;320;19271;0;2;0;7897;0;0;0;0;3;0;4637;0;0;0;0;4;0;5701;0;0;0;0;5;0;0;0;0;0;0;0;0;6;0;10666;0;0;0;0;0;0;7;0;9390;0;0;0;0;8;0;4344;0;0;0;0;9;0;4392;0;0;0;0
28.10.20;23:00:00;1;286;19243;0;2;0;7897;0;0;0;0;3;0;4637;0;0;0;0;4;0;5701;0;0;0;0;5;0;0;0;0;0;0;0;0;6;0;10666;0;0;0;0;0;0;7;0;9390;0;0;0;0;8;0;4344;0;0;0;0;9;0;4392;0;0;0;0
28.10.20;22:55:00;1;292;19219;0;2;0;7897;0;0;0;0;3;0;4637;0;0;0;0;4;0;5701;0;0;0;0;5;0;0;0;0;0;0;0;0;6;0;10666;2;0;0;0;0;0;7;0;9390;0;0;0;0;8;0;4344;0;0;0;0;9;0;4392;0;0;0;0
28.10.20;22:50:00;1;329;19195;0;2;0;7897;0;0;0;0;3;0;4637;0;0;0;0;4;0;5701;0;0;0;0;5;0;0;0;0;0;0;0;0;6;0;10666;2;0;0;0;0;0;7;0;9390;0;0;0;0;8;0;4344;0;0;0;0;9;0;4392;0;0;0;0
28.10.20;22:45:00;1;455;19169;0;2;0;7897;0;0;0;0;3;0;4637;0;0;0;0;4;0;5701;0;0;0;0;5;0;0;0;0;0;0;0;0;6;0;10666;2;0;0;0;0;0;7;0;9390;0;0;0;0;8;0;4344;0;0;0;0;9;0;4392;0;0;0;0
28.10.20;22:40:00;1;461;19132;0;2;0;7897;0;0;0;0;3;0;4637;0;0;0;0;4;0;5701;0;0;0;0;5;0;0;0;0;0;0;0;0;6;0;10666;2;0;0;0;0;0;7;0;9390;0;0;0;0;8;0;4344;0;0;0;0;9;0;4392;0;0;0;0
28.10.20;22:35:00;1;364;19093;0;2;0;7897;0;0;0;0;3;0;4637;0;0;0;0;4;0;5701;0;0;0;0;5;0;0;0;0;0;0;0;0;6;0;10666;2;0;0;0;0;0;7;0;9390;0;0;0;0;8;0;4344;0;0;0;0;9;0;4392;0;0;0;0
28.10.20;22:30:00;1;365;19061;0;2;0;7897;0;0;0;0;3;0;4637;0;0;0;0;4;0;5701;0;0;0;0;5;0;0;0;0;0;0;0;0;6;0;10666;2;0;0;0;0;0;7;0;9390;0;0;0;0;8;0;4344;0;0;0;0;9;0;4392;0;0;0;0
28.10.20;22:25:00;1;413;19031;0;2;0;7897;0;0;0;0;3;0;4637;0;0;0;0;4;0;5701;0;0;0;0;5;0;0;0;0;0;0;0;0;6;0;10666;2;0;0;0;0;0;7;0;9390;0;0;0;0;8;0;4344;0;0;0;0;9;0;4392;0;0;0;0
28.10.20;22:20:00;1;414;18996;0;2;0;7897;0;0;0;0;3;0;4637;0;0;0;0;4;0;5701;0;0;0;0;5;0;0;0;0;0;0;0;0;6;0;10666;2;0;0;0;0;0;7;0;9390;0;0;0;0;8;0;4344;0;0;0;0;9;0;4392;0;0;0;0
28.10.20;22:15:00;1;424;18962;0;2;0;7897;0;0;0;0;3;0;4637;0;0;0;0;4;0;5701;0;0;0;0;5;0;0;0;0;0;0;0;0;6;0;10666;2;0;0;0;0;0;7;0;9390;0;0;0;0;8;0;4344;0;0;0;0;9;0;4392;0;0;0;0
28.10.20;22:10:00;1;371;18927;0;2;0;7897;0;0;0;0;3;0;4637;0;0;0;0;4;0;5701;0;0;0;0;5;0;0;0;0;0;0;0;0;6;0;10666;2;0;0;0;0;0;7;0;9390;0;0;0;0;8;0;4344;0;0;0;0;9;0;4392;0;0;0;0
28.10.20;22:05:00;1;427;18896;0;2;0;7897;0;0;0;0;3;0;4637;0;0;0;0;4;0;5701;0;0;0;0;5;0;0;0;0;0;0;0;0;6;0;10666;2;0;0;0;0;0;7;0;9390;0;0;0;0;8;0;4344;0;0;0;0;9;0;4392;0;0;0;0
28.10.20;22:00:00;1;456;18859;0;2;0;7897;0;0;0;0;3;0;4637;0;0;0;0;4;0;5701;0;0;0;0;5;0;0;0;0;0;0;0;0;6;0;10666;2;0;0;0;0;0;7;0;9390;0;0;0;0;8;0;4344;0;0;0;0;9;0;4392;0;0;0;0
28.10.20;21:55:00;1;521;18822;0;2;0;7897;0;0;0;0;3;0;4637;0;0;0;0;4;0;5701;0;0;0;0;5;0;0;0;0;0;0;0;0;6;0;10666;2;0;0;0;0;0;7;0;9390;0;0;0;0;8;0;4344;0;0;0;0;9;0;4392;0;0;0;0
28.10.20;21:50:00;1;721;18779;0;2;0;7897;0;0;0;0;3;0;4637;0;0;0;0;4;0;5701;0;0;0;0;5;0;0;0;0;0;0;0;0;6;0;10666;2;0;0;0;0;0;7;0;9390;0;0;0;0;8;0;4344;0;0;0;0;9;0;4392;0;0;0;0
28.10.20;21:45:00;1;804;18723;0;2;0;7897;0;0;0;0;3;0;4637;0;0;0;0;4;0;5701;0;0;0;0;5;0;0;0;0;0;0;0;0;6;0;10666;2;0;0;0;0;0;7;0;9390;0;0;0;0;8;0;4344;0;0;0;0;9;0;4392;0;0;0;0
28.10.20;21:40:00;1;768;18655;0;2;0;7897;0;0;0;0;3;0;4637;0;0;0;0;4;0;5701;0;0;0;0;5;0;0;0;0;0;0;0;0;6;0;10666;2;0;0;0;0;0;7;0;9390;0;0;0;0;8;0;4344;0;0;0;0;9;0;4392;0;0;0;0
28.10.20;21:35:00;1;761;18591;0;2;0;7897;0;0;0;0;3;0;4637;0;0;0;0;4;0;5701;0;0;0;0;5;0;0;0;0;0;0;0;0;6;0;10666;2;0;0;0;0;0;7;0;9390;0;0;0;0;8;0;4344;0;0;0;0;9;0;4392;0;0;0;0
28.10.20;21:30:00;1;760;18527;0;2;0;7897;0;0;0;0;3;0;4637;0;0;0;0;4;0;5701;0;0;0;0;5;0;0;0;0;0;0;0;0;6;0;10666;2;0;0;0;0;0;7;0;9390;0;0;0;0;8;0;4344;0;0;0;0;9;0;4392;0;0;0;0
28.10.20;21:25:00;1;784;18464;0;2;0;7897;0;0;0;0;3;0;4637;0;0;0;0;4;0;5701;0;0;0;0;5;0;0;0;0;0;0;0;0;6;0;10666;2;0;0;0;0;0;7;0;9390;0;0;0;0;8;0;4344;0;0;0;0;9;0;4392;0;0;0;0
28.10.20;21:20:00;1;815;18399;0;2;0;7897;0;0;0;0;3;0;4637;0;0;0;0;4;0;5701;0;0;0;0;5;0;0;0;0;0;0;0;0;6;0;10666;2;0;0;0;0;0;7;0;9390;0;0;0;0;8;0;4344;0;0;0;0;9;0;4392;0;0;0;0
28.10.20;21:15:00;1;730;18331;0;2;0;7897;0;0;0;0;3;0;4637;0;0;0;0;4;0;5701;0;0;0;0;5;0;0;0;0;0;0;0;0;6;0;10666;2;0;0;0;0;0;7;0;9390;0;0;0;0;8;0;4344;0;0;0;0;9;0;4392;0;0;0;0
28.10.20;21:10:00;1;779;18271;0;2;0;7897;0;0;0;0;3;0;4637;0;0;0;0;4;0;5701;0;0;0;0;5;0;0;0;0;0;0;0;0;6;0;10666;2;0;0;0;0;0;7;0;9390;0;0;0;0;8;0;4344;0;0;0;0;9;0;4392;0;0;0;0
28.10.20;21:05:00;1;832;18205;0;2;0;7897;0;0;0;0;3;0;4637;0;0;0;0;4;0;5701;0;0;0;0;5;0;0;0;0;0;0;0;0;6;0;10666;2;0;0;0;0;0;7;0;9390;0;0;0;0;8;0;4344;0;0;0;0;9;0;4392;0;0;0;0
28.10.20;21:00:00;1;841;18137;0;2;0;7897;0;0;0;0;3;0;4637;0;0;0;0;4;0;5701;0;0;0;0;5;0;0;0;0;0;0;0;0;6;0;10666;2;0;0;0;0;0;7;0;9390;0;0;0;0;8;0;4344;0;0;0;0;9;0;4392;0;0;0;0
28.10.20;20:55:00;1;816;18067;0;2;0;7897;0;0;0;0;3;0;4637;0;0;0;0;4;0;5701;0;0;0;0;5;0;0;0;0;0;0;0;0;6;0;10666;2;0;0;0;0;0;7;0;9390;0;0;0;0;8;0;4344;0;0;0;0;9;0;4392;0;0;0;0
28.10.20;20:50:00;1;741;17998;0;2;0;7897;0;0;0;0;3;0;4637;0;0;0;0;4;0;5701;0;0;0;0;5;0;0;0;0;0;0;0;0;6;0;10666;2;0;0;0;0;0;7;0;9390;0;0;0;0;8;0;4344;0;0;0;0;9;0;4392;0;0;0;0
28.10.20;20:45:00;1;739;17935;0;2;0;7897;0;0;0;0;3;0;4637;0;0;0;0;4;0;5701;0;0;0;0;5;0;0;0;0;0;0;0;0;6;0;10666;2;0;0;0;0;0;7;0;9390;0;0;0;0;8;0;4344;0;0;0;0;9;0;4392;0;0;0;0
28.10.20;20:40:00;1;723;17874;0;2;0;7897;0;0;0;0;3;0;4637;0;0;0;0;4;0;5701;0;0;0;0;5;0;0;0;0;0;0;0;0;6;0;10666;2;0;0;0;0;0;7;0;9390;0;0;0;0;8;0;4344;0;0;0;0;9;0;4392;0;0;0;0
28.10.20;20:35:00;1;719;17813;0;2;0;7897;0;0;0;0;3;0;4637;0;0;0;0;4;0;5701;0;0;0;0;5;0;0;0;0;0;0;0;0;6;0;10666;2;0;0;0;0;0;7;0;9390;0;0;0;0;8;0;4344;0;0;0;0;9;0;4392;0;0;0;0
28.10.20;20:30:00;1;786;17753;0;2;0;7897;0;0;0;0;3;0;4637;0;0;0;0;4;0;5701;0;0;0;0;5;0;0;0;0;0;0;0;0;6;0;10666;2;0;0;0;0;0;7;0;9390;0;0;0;0;8;0;4344;0;0;0;0;9;0;4392;0;0;0;0
28.10.20;20:25:00;1;751;17688;0;2;0;7897;0;0;0;0;3;0;4637;0;0;0;0;4;0;5701;0;0;0;0;5;0;0;0;0;0;0;0;0;6;0;10666;2;0;0;0;0;0;7;0;9390;0;0;0;0;8;0;4344;0;0;0;0;9;0;4392;0;0;0;0
28.10.20;20:20:00;1;766;17625;0;2;0;7897;0;0;0;0;3;0;4637;0;0;0;0;4;0;5701;0;0;0;0;5;0;0;0;0;0;0;0;0;6;0;10666;2;0;0;0;0;0;7;0;9390;0;0;0;0;8;0;4344;0;0;0;0;9;0;4392;0;0;0;0
28.10.20;20:15:00;1;759;17561;0;2;0;7897;0;0;0;0;3;0;4637;0;0;0;0;4;0;5701;0;0;0;0;5;0;0;0;0;0;0;0;0;6;0;10666;2;0;0;0;0;0;7;0;9390;0;0;0;0;8;0;4344;0;0;0;0;9;0;4392;0;0;0;0
28.10.20;20:10:00;1;723;17498;0;2;0;7897;0;0;0;0;3;0;4637;0;0;0;0;4;0;5701;0;0;0;0;5;0;0;0;0;0;0;0;0;6;0;10666;2;0;0;0;0;0;7;0;9390;0;0;0;0;8;0;4344;0;0;0;0;9;0;4392;0;0;0;0
28.10.20;20:05:00;1;813;17437;0;2;0;7897;0;0;0;0;3;0;4637;0;0;0;0;4;0;5701;0;0;0;0;5;0;0;0;0;0;0;0;0;6;0;10666;2;0;0;0;0;0;7;0;9390;0;0;0;0;8;0;4344;0;0;0;0;9;0;4392;0;0;0;0
28.10.20;20:00:00;1;725;17369;0;2;0;7897;0;0;0;0;3;0;4637;0;0;0;0;4;0;5701;0;0;0;0;5;0;0;0;0;0;0;0;0;6;0;10666;2;0;0;0;0;0;7;0;9390;0;0;0;0;8;0;4344;0;0;0;0;9;0;4392;0;0;0;0
28.10.20;19:55:00;1;780;17309;0;2;0;7897;0;0;0;0;3;0;4637;0;0;0;0;4;0;5701;0;0;0;0;5;0;0;0;0;0;0;0;0;6;0;10666;2;0;0;0;0;0;7;0;9390;0;0;0;0;8;0;4344;0;0;0;0;9;0;4392;0;0;0;0
28.10.20;19:50:00;1;537;17243;0;2;0;7897;0;0;0;0;3;0;4637;0;0;0;0;4;0;5701;0;0;0;0;5;0;0;0;0;0;0;0;0;6;0;10666;2;0;0;0;0;0;7;0;9390;0;0;0;0;8;0;4344;0;0;0;0;9;0;4392;0;0;0;0
28.10.20;19:45:00;1;453;17197;0;2;0;7897;0;0;0;0;3;0;4637;0;0;0;0;4;0;5701;0;0;0;0;5;0;0;0;0;0;0;0;0;6;0;10666;2;0;0;0;0;0;7;0;9390;0;0;0;0;8;0;4344;0;0;0;0;9;0;4392;0;0;0;0
28.10.20;19:40:00;1;385;17159;0;2;0;7897;0;0;0;0;3;0;4637;0;0;0;0;4;0;5701;0;0;0;0;5;0;0;0;0;0;0;0;0;6;0;10666;2;0;0;0;0;0;7;0;9390;0;0;0;0;8;0;4344;0;0;0;0;9;0;4392;0;0;0;0
28.10.20;19:35:00;1;324;17127;0;2;0;7897;0;0;0;0;3;0;4637;0;0;0;0;4;0;5701;0;0;0;0;5;0;0;0;0;0;0;0;0;6;0;10666;2;0;0;0;0;0;7;0;9390;0;0;0;0;8;0;4344;0;0;0;0;9;0;4392;0;0;0;0
28.10.20;19:30:00;1;314;17100;0;2;0;7897;0;0;0;0;3;0;4637;0;0;0;0;4;0;5701;0;0;0;0;5;0;0;0;0;0;0;0;0;6;0;10666;2;0;0;0;0;0;7;0;9390;0;0;0;0;8;0;4344;0;0;0;0;9;0;4392;0;0;0;0
28.10.20;19:25:00;1;315;17073;0;2;0;7897;0;0;0;0;3;0;4637;0;0;0;0;4;0;5701;0;0;0;0;5;0;0;0;0;0;0;0;0;6;0;10666;2;0;0;0;0;0;7;0;9390;0;0;0;0;8;0;4344;0;0;0;0;9;0;4392;0;0;0;0
28.10.20;19:20:00;1;315;17047;0;2;0;7897;0;0;0;0;3;0;4637;0;0;0;0;4;0;5701;0;0;0;0;5;0;0;0;0;0;0;0;0;6;0;10666;2;0;0;0;0;0;7;0;9390;0;0;0;0;8;0;4344;0;0;0;0;9;0;4392;0;0;0;0
28.10.20;19:15:00;1;368;17021;0;2;0;7897;0;0;0;0;3;0;4637;0;0;0;0;4;0;5701;0;0;0;0;5;0;0;0;0;0;0;0;0;6;0;10666;2;0;0;0;0;0;7;0;9390;0;0;0;0;8;0;4344;0;0;0;0;9;0;4392;0;0;0;0
28.10.20;19:10:00;1;370;16990;0;2;0;7897;0;0;0;0;3;0;4637;0;0;0;0;4;0;5701;0;0;0;0;5;0;0;0;0;0;0;0;0;6;0;10666;2;0;0;0;0;0;7;0;9390;0;0;0;0;8;0;4344;0;0;0;0;9;0;4392;0;0;0;0
28.10.20;19:05:00;1;381;16958;0;2;0;7897;0;0;0;0;3;0;4637;0;0;0;0;4;0;5701;0;0;0;0;5;0;0;0;0;0;0;0;0;6;0;10666;2;0;0;0;0;0;7;0;9390;0;0;0;0;8;0;4344;0;0;0;0;9;0;4392;0;0;0;0
28.10.20;19:00:00;1;399;16924;0;2;0;7897;0;0;0;0;3;0;4637;0;0;0;0;4;0;5701;0;0;0;0;5;0;0;0;0;0;0;0;0;6;0;10666;2;0;0;0;0;0;7;0;9390;0;0;0;0;8;0;4344;0;0;0;0;9;0;4392;0;0;0;0
28.10.20;18:55:00;1;489;16890;0;2;0;7897;0;0;0;0;3;0;4637;0;0;0;0;4;0;5701;0;0;0;0;5;0;0;0;0;0;0;0;0;6;0;10666;2;0;0;0;0;0;7;0;9390;0;0;0;0;8;0;4344;0;0;0;0;9;0;4392;0;0;0;0
28.10.20;18:50:00;1;329;16848;0;2;0;7897;0;0;0;0;3;0;4637;0;0;0;0;4;0;5701;0;0;0;0;5;0;0;0;0;0;0;0;0;6;0;10666;2;0;0;0;0;0;7;0;9390;0;0;0;0;8;0;4344;0;0;0;0;9;0;4392;0;0;0;0
28.10.20;18:45:00;1;350;16821;0;2;0;7897;0;0;0;0;3;0;4637;0;0;0;0;4;0;5701;0;0;0;0;5;0;0;0;0;0;0;0;0;6;0;10666;2;0;0;0;0;0;7;0;9390;0;0;0;0;8;0;4344;0;0;0;0;9;0;4392;0;0;0;0
28.10.20;18:40:00;1;323;16790;0;2;0;7897;0;0;0;0;3;0;4637;0;0;0;0;4;0;5701;0;0;0;0;5;0;0;0;0;0;0;0;0;6;0;10666;2;0;0;0;0;0;7;0;9390;0;0;0;0;8;0;4344;0;0;0;0;9;0;4392;0;0;0;0
28.10.20;18:35:00;1;273;16763;0;2;0;7897;0;0;0;0;3;0;4637;0;0;0;0;4;0;5701;0;0;0;0;5;0;0;0;0;0;0;0;0;6;0;10666;2;0;0;0;0;0;7;0;9390;0;0;0;0;8;0;4344;0;0;0;0;9;0;4392;0;0;0;0
28.10.20;18:30:00;1;263;16741;0;2;0;7897;0;0;0;0;3;0;4637;0;0;0;0;4;0;5701;0;0;0;0;5;0;0;0;0;0;0;0;0;6;0;10666;2;0;0;0;0;0;7;0;9390;0;0;0;0;8;0;4344;0;0;0;0;9;0;4392;0;0;0;0
28.10.20;18:25:00;1;263;16719;0;2;0;7897;0;0;0;0;3;0;4637;0;0;0;0;4;0;5701;0;0;0;0;5;0;0;0;0;0;0;0;0;6;0;10666;2;0;0;0;0;0;7;0;9390;0;0;0;0;8;0;4344;0;0;0;0;9;0;4392;0;0;0;0
28.10.20;18:20:00;1;322;16697;0;2;0;7897;0;0;0;0;3;0;4637;0;0;0;0;4;0;5701;0;0;0;0;5;0;0;0;0;0;0;0;0;6;0;10666;2;0;0;0;0;0;7;0;9390;0;0;0;0;8;0;4344;0;0;0;0;9;0;4392;0;0;0;0
28.10.20;18:15:00;1;310;16670;0;2;0;7897;0;0;0;0;3;0;4637;0;0;0;0;4;0;5701;0;0;0;0;5;0;0;0;0;0;0;0;0;6;0;10666;2;0;0;0;0;0;7;0;9390;0;0;0;0;8;0;4344;0;0;0;0;9;0;4392;0;0;0;0
28.10.20;18:10:00;1;305;16644;0;2;0;7897;0;0;0;0;3;0;4637;0;0;0;0;4;0;5701;0;0;0;0;5;0;0;0;0;0;0;0;0;6;0;10666;2;0;0;0;0;0;7;0;9390;0;0;0;0;8;0;4344;0;0;0;0;9;0;4392;0;0;0;0
28.10.20;18:05:00;1;312;16618;0;2;0;7897;0;0;0;0;3;0;4637;0;0;0;0;4;0;5701;0;0;0;0;5;0;0;0;0;0;0;0;0;6;0;10666;2;0;0;0;0;0;7;0;9390;0;0;0;0;8;0;4344;0;0;0;0;9;0;4392;0;0;0;0
28.10.20;18:00:00;1;304;16592;0;2;0;7897;0;0;0;0;3;0;4637;0;0;0;0;4;0;5701;0;0;0;0;5;0;0;0;0;0;0;0;0;6;0;10666;2;0;0;0;0;0;7;0;9390;0;0;0;0;8;0;4344;0;0;0;0;9;0;4392;0;0;0;0
28.10.20;17:55:00;1;333;16566;0;2;0;7897;0;0;0;0;3;0;4637;0;0;0;0;4;0;5701;0;0;0;0;5;0;0;0;0;0;0;0;0;6;0;10666;2;0;0;0;0;0;7;0;9390;0;0;0;0;8;0;4344;0;0;0;0;9;0;4392;0;0;0;0
28.10.20;17:50:00;1;282;16539;0;2;0;7897;0;0;0;0;3;0;4637;0;0;0;0;4;0;5701;0;0;0;0;5;0;0;0;0;0;0;0;0;6;0;10666;2;0;0;0;0;0;7;0;9390;0;0;0;0;8;0;4344;0;0;0;0;9;0;4392;0;0;0;0
28.10.20;17:45:00;1;334;16516;0;2;0;7897;0;0;0;0;3;0;4637;0;0;0;0;4;0;5701;0;0;0;0;5;0;0;0;0;0;0;0;0;6;0;10666;2;0;0;0;0;0;7;0;9390;0;0;0;0;8;0;4344;0;0;0;0;9;0;4392;0;0;0;0
28.10.20;17:40:00;1;364;16488;0;2;0;7897;0;0;0;0;3;0;4637;0;0;0;0;4;0;5701;0;0;0;0;5;0;0;0;0;0;0;0;0;6;0;10666;2;0;0;0;0;0;7;0;9390;0;0;0;0;8;0;4344;0;0;0;0;9;0;4392;0;0;0;0
28.10.20;17:35:00;1;650;16457;0;2;0;7897;0;0;0;0;3;0;4637;0;0;0;0;4;0;5701;0;0;0;0;5;0;0;0;0;0;0;0;0;6;0;10666;2;0;0;0;0;0;7;0;9390;0;0;0;0;8;0;4344;0;0;0;0;9;0;4392;0;0;0;0
28.10.20;17:30:00;1;494;16418;0;2;0;7897;0;0;0;0;3;0;4637;0;0;0;0;4;0;5701;0;0;0;0;5;0;0;0;0;0;0;0;0;6;0;10666;2;0;0;0;0;0;7;0;9390;0;0;0;0;8;0;4344;0;0;0;0;9;0;4392;0;0;0;0
28.10.20;17:25:00;1;488;16378;0;2;0;7897;0;0;0;0;3;0;4637;0;0;0;0;4;0;5701;0;0;0;0;5;0;0;0;0;0;0;0;0;6;0;10666;2;0;0;0;0;0;7;0;9390;0;0;0;0;8;0;4344;0;0;0;0;9;0;4392;0;0;0;0
28.10.20;17:20:00;1;956;16335;0;2;0;7897;0;0;0;0;3;0;4637;0;0;0;0;4;0;5701;0;0;0;0;5;0;0;0;0;0;0;0;0;6;0;10666;2;0;0;0;0;0;7;0;9390;0;0;0;0;8;0;4344;0;0;0;0;9;0;4392;0;0;0;0
28.10.20;17:15:00;1;990;16255;0;2;0;7897;0;0;0;0;3;0;4637;0;0;111;7;4;0;5701;0;0;0;0;5;0;0;0;0;0;0;0;0;6;0;10666;2;0;0;0;0;0;7;0;9390;0;0;0;0;8;0;4344;0;0;0;0;9;0;4392;0;0;0;0
28.10.20;17:10:00;1;815;16172;0;2;0;7897;6;0;294;16;3;0;4637;6;0;338;18;4;0;5701;2;0;73;17;5;0;0;0;0;0;0;0;0;6;0;10666;2;0;0;0;0;1;7;0;9390;0;0;0;0;8;0;4344;0;0;0;0;9;0;4392;0;0;0;0
28.10.20;17:05:00;1;772;16103;0;2;0;7897;6;0;349;16;3;0;4637;6;2;414;18;4;0;5701;1;0;133;17;5;0;0;0;0;0;0;0;0;6;0;10666;23;6;4;434;179;27;7;0;9390;0;0;235;17;8;0;4344;0;0;235;15;9;0;4392;2;0;294;16
28.10.20;17:00:00;1;848;16038;0;2;0;7897;6;0;382;17;3;1;4637;6;5;440;19;4;0;5701;1;0;188;18;5;0;0;0;0;0;0;0;0;6;0;10666;23;6;4;240;482;27;7;0;9390;6;0;381;22;8;0;4344;6;0;371;19;9;0;4392;6;0;399;16
28.10.20;16:55:00;1;982;15968;0;2;0;7897;6;0;398;17;3;1;4637;6;3;480;19;4;0;5701;1;0;219;18;5;0;0;0;0;0;0;0;0;6;0;10666;23;5;5;451;567;27;7;0;9390;6;4;402;22;8;0;4344;6;0;420;19;9;0;4392;6;0;471;16
28.10.20;16:50:00;1;1024;15887;0;2;0;7897;6;0;409;18;3;2;4637;6;4;500;19;4;0;5701;3;0;217;19;5;0;0;0;0;0;0;0;0;6;0;10666;23;4;4;353;578;28;7;0;9390;6;3;428;23;8;0;4344;0;1;353;16;9;2;4392;4;3;461;17
28.10.20;16:45:00;1;1010;15801;0;2;15;7897;6;25;396;19;3;0;4637;4;5;508;19;4;0;5701;3;0;212;19;5;0;0;0;0;0;0;0;0;6;36;10666;1;14;20;495;478;29;7;3;9390;6;8;439;23;8;1;4344;6;3;439;20;9;1;4392;6;3;498;17
28.10.20;16:40:00;1;924;15717;0;2;49;7895;4;79;361;20;3;11;4637;3;26;473;20;4;4;5701;3;4;199;19;5;0;0;0;0;0;0;0;0;6;74;10663;4;36;40;442;427;29;7;8;9390;4;16;448;23;8;1;4344;6;3;453;20;9;0;4392;6;4;519;17
28.10.20;16:35:00;1;899;15639;0;2;88;7891;4;121;370;21;3;17;4636;6;28;500;20;4;40;5701;3;41;198;20;5;0;0;0;0;0;0;0;0;6;100;10656;4;54;59;442;427;29;7;42;9389;4;83;419;24;8;2;4344;6;4;485;20;9;2;4392;6;5;532;17
28.10.20;16:30:00;1;797;15571;0;2;238;7883;4;279;380;21;3;146;4634;4;180;416;21;4;177;5697;5;185;226;20;5;0;0;0;0;0;0;0;0;6;177;10647;4;75;79;442;427;29;7;177;9386;4;219;472;24;8;0;4344;6;0;510;21;9;6;4392;6;9;548;18
28.10.20;16:25:00;1;1566;15505;0;2;357;7864;4;399;373;22;3;226;4622;4;264;424;22;4;273;5683;5;284;212;20;5;0;0;0;0;0;0;0;0;6;250;10632;4;132;138;442;429;29;7;331;9372;4;366;463;25;8;50;4344;4;88;463;21;9;8;4391;6;13;558;18
28.10.20;16:20:00;1;881;15423;0;2;630;7835;4;681;355;23;3;407;4604;4;455;430;22;4;430;5661;5;448;203;20;5;0;0;0;0;0;0;0;0;6;486;10611;4;235;248;580;558;30;7;625;9345;4;671;438;25;8;120;4340;4;157;460;21;9;84;4391;4;111;476;19
28.10.20;16:15:00;1;809;15356;0;2;900;7786;4;959;355;24;3;570;4573;4;622;427;22;4;572;5628;5;596;206;21;5;0;0;0;0;0;0;0;0;6;676;10570;4;336;353;590;566;30;7;1015;9297;4;1080;456;25;8;178;4330;4;215;415;21;9;105;4384;4;137;496;19
28.10.20;16:10:00;1;790;15294;0;2;1120;7711;4;1190;368;25;3;650;4525;4;703;431;22;4;635;5580;5;661;212;21;5;0;0;0;0;0;0;0;0;6;834;10513;4;405;413;593;569;30;7;1425;9211;4;1500;485;26;8;323;4315;4;358;368;21;9;127;4375;4;162;530;19
28.10.20;16:05:00;1;798;15227;0;2;1350;7619;4;1429;383;25;3;720;4472;4;781;439;23;4;688;5527;5;716;217;21;5;0;0;0;0;0;0;0;0;6;977;10443;4;499;505;598;569;30;7;1692;9095;4;1782;484;26;8;577;4290;4;622;420;21;9;150;4365;4;181;537;20
28.10.20;16:00:00;1;838;15161;0;2;1498;7506;4;1584;387;26;3;818;4412;4;876;431;23;4;729;5470;5;759;223;21;5;0;0;0;0;0;0;0;0;6;1140;10360;4;601;598;595;567;30;7;1925;8953;4;2025;483;26;8;809;4241;4;855;453;22;9;176;4352;4;209;538;20
28.10.20;15:55:00;1;798;15094;0;2;1642;7382;4;1733;392;26;3;907;4344;4;969;420;23;4;798;5410;5;831;204;21;5;0;0;0;0;0;0;0;0;6;1302;10264;4;656;662;592;570;30;7;2113;8794;4;2226;482;26;8;1005;4175;4;1066;475;22;9;181;4338;4;212;465;20
28.10.20;15:50:00;1;873;15032;0;2;1803;7244;4;1897;386;26;3;992;4268;4;1056;422;23;4;862;5343;5;898;207;21;5;0;0;0;0;0;0;0;0;6;1510;10153;4;791;776;597;575;30;7;2379;8616;4;2491;482;26;8;1154;4089;4;1216;476;21;9;248;4323;4;279;355;21
28.10.20;15:45:00;1;915;14961;0;2;1922;7094;4;2023;392;27;3;1093;4186;4;1159;422;23;4;918;5271;5;957;202;21;5;0;0;0;0;0;0;0;0;6;1686;10027;4;862;860;596;570;30;7;2562;8419;4;2692;480;26;8;1248;3994;4;1317;477;21;9;562;4303;4;602;351;22
28.10.20;15:40:00;1;713;14864;0;2;2076;6934;4;2180;384;27;3;1186;4095;4;1254;426;23;4;934;5195;5;972;201;21;5;0;0;0;0;0;0;0;0;6;1904;9884;4;951;944;599;573;30;7;2786;8205;4;2916;480;25;8;1362;3890;4;1429;471;21;9;959;4255;4;1015;368;22
28.10.20;15:35:00;1;680;14804;0;2;2227;6762;4;2337;382;26;3;1253;3996;4;1327;427;23;4;937;5117;5;976;199;21;5;0;0;0;0;0;0;0;0;6;2079;9725;4;1063;1047;595;578;30;7;2972;7974;4;3115;477;25;8;1452;3777;4;1531;473;21;9;1193;4177;4;1256;402;23
28.10.20;15:30:00;1;708;14747;0;2;2252;6576;4;2366;386;26;3;1267;3891;4;1341;427;23;4;919;5039;5;957;225;21;5;0;0;0;0;0;0;0;0;6;2191;9549;4;1129;1118;596;576;30;7;2995;7725;4;3139;480;25;8;1457;3655;4;1530;479;21;9;1302;4077;4;1375;433;23
28.10.20;15:25:00;1;756;14683;0;2;2154;6390;4;2263;382;26;3;1212;3786;4;1284;421;22;4;908;4962;5;946;221;21;5;0;0;0;0;0;0;0;0;6;2177;9369;4;1111;1092;595;570;29;7;2863;7474;4;3005;478;24;8;1401;3533;4;1469;471;21;9;1324;3969;4;1397;459;23
28.10.20;15:20:00;1;806;14619;0;2;2511;6206;4;2634;383;25;3;1407;3682;4;1486;419;22;4;1029;4885;5;1073;233;20;5;0;0;0;0;0;0;0;0;6;2589;9185;4;1341;1301;595;570;29;7;3330;7230;4;3481;472;24;8;1620;3414;4;1701;477;21;9;1616;3856;4;1708;481;23
28.10.20;15:15:00;1;798;14551;0;2;2658;5996;4;2793;389;24;3;1496;3565;4;1580;427;22;4;1094;4799;5;1140;240;20;5;0;0;0;0;0;0;0;0;6;2857;8967;4;1482;1453;601;577;29;7;3629;6954;4;3798;480;23;8;1774;3280;4;1861;473;21;9;1843;3722;4;1947;513;23
28.10.20;15:10:00;1;825;14485;0;2;2395;5776;4;2513;397;23;3;942;3441;4;1008;496;21;4;1068;4708;5;1112;244;20;5;0;0;0;0;0;0;0;0;6;2602;8731;4;1338;1299;600;578;29;7;3182;6651;4;3334;480;23;8;1570;3132;4;1645;473;20;9;1709;3568;4;1810;532;22
28.10.20;15:05:00;1;788;14416;0;2;1994;5578;4;2098;390;22;3;908;3358;4;982;539;21;4;1042;4620;5;1085;248;20;5;0;0;0;0;0;0;0;0;6;2482;8514;4;1290;1237;600;580;29;7;3370;6387;4;3524;498;22;8;1550;3001;4;1623;450;20;9;1557;3425;4;1654;527;22
28.10.20;15:00:00;1;791;14350;0;2;2463;5407;4;2589;402;21;3;856;3281;4;927;541;21;4;1203;4531;5;1253;254;20;5;0;0;0;0;0;0;0;0;6;2799;8306;4;1446;1409;595;577;28;7;3284;6106;4;3439;490;22;8;1605;2870;4;1686;475;20;9;1737;3292;4;1841;527;21
28.10.20;14:55:00;1;874;14284;0;2;2646;5201;4;2777;406;20;3;1174;3210;4;1256;537;20;4;1442;4431;5;1502;255;19;5;0;0;0;0;0;0;0;0;6;3126;8068;4;1618;1575;602;587;28;7;3564;5832;4;3737;489;21;8;1770;2737;4;1849;488;20;9;1900;3148;4;2013;534;20
28.10.20;14:50:00;1;833;14211;0;2;1651;4982;4;1745;412;18;3;892;3113;4;965;538;20;4;1170;4311;5;1219;250;19;5;0;0;0;0;0;0;0;0;6;2076;7815;4;1079;1048;597;570;28;7;2246;5537;4;2349;494;21;8;1082;2590;4;1142;480;20;9;1151;2990;4;1233;539;19
28.10.20;14:45:00;1;830;14142;0;2;1310;4845;4;1381;411;17;3;769;3039;4;837;527;19;4;1024;4213;5;1066;246;18;5;0;0;0;0;0;0;0;0;6;1780;7635;4;896;884;604;571;28;7;1807;5352;4;1900;488;21;8;902;2500;4;948;489;20;9;1020;2895;4;1094;539;18
28.10.20;14:40:00;1;827;14072;0;2;668;4738;4;716;397;17;3;419;2976;4;472;505;19;4;568;4130;5;592;241;18;5;0;0;0;0;0;0;0;0;6;990;7500;4;470;475;590;569;28;7;766;5205;4;812;469;21;8;358;2428;4;399;484;20;9;403;2812;4;447;520;18
28.10.20;14:35:00;1;781;14003;0;2;604;4681;4;648;401;17;3;380;2940;4;425;507;19;4;520;4081;5;542;237;18;5;0;0;0;0;0;0;0;0;6;941;7417;4;470;475;586;561;28;7;678;5140;4;716;479;20;8;305;2397;4;344;487;20;9;355;2778;4;393;516;18
28.10.20;14:30:00;1;873;13939;0;2;581;4630;4;626;400;17;3;362;2909;4;411;502;19;4;501;4038;5;522;237;18;5;0;0;0;0;0;0;0;0;6;922;7339;4;451;455;586;568;28;7;646;5083;4;693;469;21;8;301;2371;4;336;484;20;9;348;2748;4;387;522;18
28.10.20;14:25:00;1;858;13870;0;2;629;4581;4;676;398;17;3;398;2879;4;448;511;19;4;545;3996;5;568;236;18;5;0;0;0;0;0;0;0;0;6;972;7261;4;504;501;593;562;28;7;691;5029;4;731;473;21;8;314;2346;4;357;489;20;9;368;2719;4;410;532;18
28.10.20;14:20:00;1;818;13802;0;2;440;4529;4;481;394;17;3;264;2845;4;319;501;19;4;373;3951;5;389;237;18;5;0;0;0;0;0;0;0;0;6;682;7181;4;332;340;573;564;28;7;485;4971;4;523;466;21;8;217;2320;4;253;479;20;9;265;2688;4;300;508;18
28.10.20;14:15:00;1;819;13734;0;2;493;4492;4;533;398;17;3;304;2823;4;350;502;19;4;423;3919;5;440;239;18;5;0;0;0;0;0;0;0;0;6;796;7125;4;404;409;575;564;28;7;516;4931;4;553;467;21;8;234;2301;4;272;467;20;9;271;2666;4;310;514;18
28.10.20;14:10:00;1;809;13665;0;2;403;4451;4;444;394;17;3;252;2797;4;296;496;19;4;351;3884;5;366;235;18;5;0;0;0;0;0;0;0;0;6;657;7058;4;333;346;577;554;28;7;438;4887;4;486;464;21;8;199;2282;4;237;463;20;9;241;2643;4;277;514;18
28.10.20;14:05:00;1;821;13597;0;2;469;4416;4;511;395;17;3;295;2776;4;338;494;19;4;409;3853;5;426;236;18;5;0;0;0;0;0;0;0;0;6;771;7003;4;381;383;578;566;28;7;518;4849;4;563;463;21;8;239;2265;4;272;448;20;9;279;2622;4;317;518;18
28.10.20;14:00:00;1;801;13529;0;2;566;4377;4;610;399;17;3;356;2751;4;401;497;19;4;485;3819;5;505;238;18;5;0;0;0;0;0;0;0;0;6;890;6937;4;452;452;584;564;28;7;608;4805;4;663;475;21;8;284;2244;4;324;483;20;9;333;2599;4;374;519;18
28.10.20;13:55:00;1;788;13462;0;2;534;4330;4;578;402;17;3;334;2722;4;382;498;19;4;454;3779;5;473;234;18;5;0;0;0;0;0;0;0;0;6;823;6863;4;410;409;586;567;28;7;577;4755;4;616;470;21;8;257;2220;4;302;485;20;9;307;2571;4;346;518;18
28.10.20;13:50:00;1;814;13397;0;2;437;4285;4;476;390;17;3;274;2694;4;317;503;19;4;373;3741;5;388;234;18;5;0;0;0;0;0;0;0;0;6;680;6795;4;344;349;564;562;28;7;468;4706;4;512;471;21;8;206;2199;4;249;483;20;9;257;2545;4;294;521;18